Time,TemperatureF,DewpointF,PressureIn,WindDirection,WindDirectionDegrees,WindSpeedMPH,WindSpeedGustMPH,Humidity,HourlyPrecipIn,Conditions,Clouds,dailyrainin,SoftwareType,DateUTC
2013-09-22 00:01:00,55.1,50.4,29.93,NNW,334,0.0,2.0,84,0.00,,,0.00,WUHU216DAVISVP2,2013-09-22 05:01:00,
2013-09-22 00:06:00,55.0,50.3,29.93,ENE,70,0.0,2.0,84,0.00,,,0.00,WUHU216DAVISVP2,2013-09-22 05:06:00,
2013-09-22 00:11:00,54.9,50.2,29.93,NNW,340,2.0,2.0,84,0.00,,,0.00,WUHU216DAVISVP2,2013-09-22 05:11:00,
2013-09-22 00:16:00,55.1,50.0,29.93,NW,317,0.0,2.0,83,0.00,,,0.00,WUHU216DAVISVP2,2013-09-22 05:16:00,
2013-09-22 00:21:00,54.9,49.8,29.93,West,266,0.0,2.0,83,0.00,,,0.00,WUHU216DAVISVP2,2013-09-22 05:21:00,
2013-09-22 00:26:00,54.8,50.1,29.93,NNW,333,0.0,2.0,84,0.00,,,0.00,WUHU216DAVISVP2,2013-09-22 05:26:00,
2013-09-22 00:31:00,54.9,50.2,29.93,North,4,2.0,3.0,84,0.00,,,0.00,WUHU216DAVISVP2,2013-09-22 05:31:00,
2013-09-22 00:36:00,55.3,50.6,29.93,NNW,340,2.0,3.0,84,0.00,,,0.00,WUHU216DAVISVP2,2013-09-22 05:36:00,
2013-09-22 00:41:00,55.5,50.4,29.93,North,360,3.0,3.0,83,0.00,,,0.00,WUHU216DAVISVP2,2013-09-22 05:41:00,
2013-09-22 00:46:00,55.2,50.1,29.93,North,349,0.0,3.0,83,0.00,,,0.00,WUHU216DAVISVP2,2013-09-22 05:46:00,
2013-09-22 00:52:00,54.9,50.2,29.93,North,349,0.0,2.0,84,0.00,,,0.00,WUHU216DAVISVP2,2013-09-22 05:52:00,
2013-09-22 00:57:00,54.7,50.0,29.93,North,349,0.0,1.0,84,0.00,,,0.00,WUHU216DAVISVP2,2013-09-22 05:57:00,
2013-09-22 01:02:00,54.5,50.1,29.93,North,349,0.0,1.0,85,0.00,,,0.00,WUHU216DAVISVP2,2013-09-22 06:02:00,
2013-09-22 01:07:00,54.5,50.4,29.93,North,349,0.0,1.0,86,0.00,,,0.00,WUHU216DAVISVP2,2013-09-22 06:07:00,
2013-09-22 01:12:00,54.4,50.3,29.93,North,349,0.0,1.0,86,0.00,,,0.00,WUHU216DAVISVP2,2013-09-22 06:12:00,
2013-09-22 01:17:00,54.4,50.3,29.93,North,349,0.0,1.0,86,0.00,,,0.00,WUHU216DAVISVP2,2013-09-22 06:17:00,
2013-09-22 01:22:00,54.5,50.4,29.93,North,349,0.0,0.0,86,0.00,,,0.00,WUHU216DAVISVP2,2013-09-22 06:22:00,
2013-09-22 01:27:00,54.5,50.4,29.93,NNW,347,0.0,1.0,86,0.00,,,0.00,WUHU216DAVISVP2,2013-09-22 06:27:00,
2013-09-22 01:32:00,54.3,49.9,29.93,NNW,347,0.0,1.0,85,0.00,,,0.00,WUHU216DAVISVP2,2013-09-22 06:32:00,
2013-09-22 01:37:00,54.0,49.9,29.94,NNW,343,0.0,1.0,86,0.00,,,0.00,WUHU216DAVISVP2,2013-09-22 06:37:00,
2013-09-22 01:42:00,54.0,50.2,29.94,NNW,343,0.0,1.0,87,0.00,,,0.00,WUHU216DAVISVP2,2013-09-22 06:42:00,
2013-09-22 01:47:00,54.0,50.2,29.94,NNW,343,0.0,1.0,87,0.00,,,0.00,WUHU216DAVISVP2,2013-09-22 06:47:00,
2013-09-22 01:52:00,53.9,50.1,29.94,NNW,343,0.0,1.0,87,0.00,,,0.00,WUHU216DAVISVP2,2013-09-22 06:52:00,
2013-09-22 01:57:00,54.0,50.2,29.93,NNW,343,0.0,1.0,87,0.00,,,0.00,WUHU216DAVISVP2,2013-09-22 06:57:00,
2013-09-22 02:02:00,53.9,50.1,29.93,NNW,342,0.0,0.0,87,0.00,,,0.00,WUHU216DAVISVP2,2013-09-22 07:02:00,
2013-09-22 02:07:00,53.8,50.0,29.93,NNW,342,0.0,0.0,87,0.00,,,0.00,WUHU216DAVISVP2,2013-09-22 07:07:00,
2013-09-22 02:12:00,53.9,50.4,29.93,NNW,329,0.0,0.0,88,0.00,,,0.00,WUHU216DAVISVP2,2013-09-22 07:12:00,
2013-09-22 02:17:00,54.0,50.2,29.93,NNW,329,0.0,0.0,87,0.00,,,0.00,WUHU216DAVISVP2,2013-09-22 07:17:00,
2013-09-22 02:22:00,54.0,50.2,29.93,NNW,329,0.0,0.0,87,0.00,,,0.00,WUHU216DAVISVP2,2013-09-22 07:22:00,
2013-09-22 02:27:00,54.0,50.5,29.93,NW,321,0.0,0.0,88,0.00,,,0.00,WUHU216DAVISVP2,2013-09-22 07:27:00,
2013-09-22 02:32:00,54.1,50.3,29.93,NW,325,0.0,0.0,87,0.00,,,0.00,WUHU216DAVISVP2,2013-09-22 07:32:00,
2013-09-22 02:37:00,53.8,50.0,29.93,NW,324,0.0,0.0,87,0.00,,,0.00,WUHU216DAVISVP2,2013-09-22 07:37:00,
2013-09-22 02:42:00,53.3,49.5,29.93,NW,325,0.0,0.0,87,0.00,,,0.00,WUHU216DAVISVP2,2013-09-22 07:42:00,
2013-09-22 02:47:00,52.9,49.4,29.93,NW,325,0.0,0.0,88,0.00,,,0.00,WUHU216DAVISVP2,2013-09-22 07:47:00,
2013-09-22 02:52:00,52.4,48.9,29.93,NW,325,0.0,0.0,88,0.00,,,0.00,WUHU216DAVISVP2,2013-09-22 07:52:00,
2013-09-22 02:57:00,51.8,48.3,29.93,NW,324,0.0,0.0,88,0.00,,,0.00,WUHU216DAVISVP2,2013-09-22 07:57:00,
2013-09-22 03:02:00,51.6,48.7,29.93,NW,325,0.0,0.0,90,0.00,,,0.00,WUHU216DAVISVP2,2013-09-22 08:02:00,
2013-09-22 03:07:00,51.8,49.2,29.93,NW,324,0.0,0.0,91,0.00,,,0.00,WUHU216DAVISVP2,2013-09-22 08:07:00,
2013-09-22 03:12:00,52.3,49.7,29.93,NW,324,0.0,0.0,91,0.00,,,0.00,WUHU216DAVISVP2,2013-09-22 08:12:00,
2013-09-22 03:17:00,52.4,49.5,29.93,NW,324,0.0,0.0,90,0.00,,,0.00,WUHU216DAVISVP2,2013-09-22 08:17:00,
2013-09-22 03:22:00,52.4,49.3,29.93,NW,324,0.0,0.0,89,0.00,,,0.00,WUHU216DAVISVP2,2013-09-22 08:22:00,
2013-09-22 03:27:00,52.3,49.2,29.93,NW,324,0.0,0.0,89,0.00,,,0.00,WUHU216DAVISVP2,2013-09-22 08:27:00,
2013-09-22 03:32:00,52.3,49.5,29.93,NW,325,0.0,0.0,90,0.00,,,0.00,WUHU216DAVISVP2,2013-09-22 08:32:00,
2013-09-22 03:37:00,52.2,49.1,29.93,NW,324,0.0,0.0,89,0.00,,,0.00,WUHU216DAVISVP2,2013-09-22 08:37:00,
2013-09-22 03:42:00,51.8,48.6,29.93,NW,325,0.0,0.0,89,0.00,,,0.00,WUHU216DAVISVP2,2013-09-22 08:42:00,
2013-09-22 03:47:00,51.3,48.1,29.93,NW,325,0.0,0.0,89,0.00,,,0.00,WUHU216DAVISVP2,2013-09-22 08:47:00,
2013-09-22 03:52:00,51.0,48.1,29.93,NW,324,0.0,0.0,90,0.00,,,0.00,WUHU216DAVISVP2,2013-09-22 08:52:00,
2013-09-22 03:57:00,50.8,48.2,29.94,NW,325,0.0,0.0,91,0.00,,,0.00,WUHU216DAVISVP2,2013-09-22 08:57:00,
2013-09-22 04:02:00,50.4,47.8,29.94,NW,324,0.0,0.0,91,0.00,,,0.00,WUHU216DAVISVP2,2013-09-22 09:02:00,
2013-09-22 04:07:00,50.3,48.0,29.94,NW,325,0.0,0.0,92,0.00,,,0.00,WUHU216DAVISVP2,2013-09-22 09:07:00,
2013-09-22 04:12:00,50.5,48.5,29.94,NW,309,0.0,0.0,93,0.00,,,0.00,WUHU216DAVISVP2,2013-09-22 09:12:00,
2013-09-22 04:17:00,50.9,48.6,29.94,NW,316,0.0,0.0,92,0.00,,,0.00,WUHU216DAVISVP2,2013-09-22 09:17:00,
2013-09-22 04:22:00,50.9,48.3,29.94,NNW,339,0.0,0.0,91,0.00,,,0.00,WUHU216DAVISVP2,2013-09-22 09:22:00,
2013-09-22 04:27:00,50.9,48.3,29.94,NNW,338,0.0,0.0,91,0.00,,,0.00,WUHU216DAVISVP2,2013-09-22 09:27:00,
2013-09-22 04:32:00,51.1,48.5,29.94,NNW,337,0.0,0.0,91,0.00,,,0.00,WUHU216DAVISVP2,2013-09-22 09:32:00,
2013-09-22 04:37:00,51.2,48.6,29.94,NNW,337,0.0,0.0,91,0.00,,,0.00,WUHU216DAVISVP2,2013-09-22 09:37:00,
2013-09-22 04:42:00,51.0,48.1,29.94,NNW,337,0.0,0.0,90,0.00,,,0.00,WUHU216DAVISVP2,2013-09-22 09:42:00,
2013-09-22 04:47:00,50.6,47.7,29.94,NNW,338,0.0,0.0,90,0.00,,,0.00,WUHU216DAVISVP2,2013-09-22 09:47:00,
2013-09-22 04:52:00,50.6,48.0,29.94,NNW,337,0.0,0.0,91,0.00,,,0.00,WUHU216DAVISVP2,2013-09-22 09:52:00,
2013-09-22 04:57:00,50.6,48.4,29.94,NNW,337,0.0,0.0,92,0.00,,,0.00,WUHU216DAVISVP2,2013-09-22 09:57:00,
2013-09-22 05:02:00,50.6,48.4,29.94,NNW,337,0.0,0.0,92,0.00,,,0.00,WUHU216DAVISVP2,2013-09-22 10:02:00,
2013-09-22 05:07:00,50.4,47.9,29.95,NNW,337,0.0,0.0,91,0.00,,,0.00,WUHU216DAVISVP2,2013-09-22 10:07:00,
2013-09-22 05:12:00,50.3,47.7,29.95,NNW,337,0.0,0.0,91,0.00,,,0.00,WUHU216DAVISVP2,2013-09-22 10:12:00,
2013-09-22 05:17:00,50.0,47.7,29.95,NNW,337,0.0,0.0,92,0.00,,,0.00,WUHU216DAVISVP2,2013-09-22 10:17:00,
2013-09-22 05:22:00,49.9,47.6,29.95,NNW,338,0.0,0.0,92,0.00,,,0.00,WUHU216DAVISVP2,2013-09-22 10:22:00,
2013-09-22 05:27:00,50.0,48.0,29.95,NNW,337,0.0,0.0,93,0.00,,,0.00,WUHU216DAVISVP2,2013-09-22 10:27:00,
2013-09-22 05:32:00,50.1,48.1,29.95,NNE,15,0.0,0.0,93,0.00,,,0.00,WUHU216DAVISVP2,2013-09-22 10:32:00,
2013-09-22 05:37:00,50.4,48.4,29.95,NNE,15,0.0,0.0,93,0.00,,,0.00,WUHU216DAVISVP2,2013-09-22 10:37:00,
2013-09-22 05:42:00,50.3,48.0,29.95,NNE,15,0.0,0.0,92,0.00,,,0.00,WUHU216DAVISVP2,2013-09-22 10:42:00,
2013-09-22 05:47:00,50.3,48.3,29.95,NNE,15,0.0,0.0,93,0.00,,,0.00,WUHU216DAVISVP2,2013-09-22 10:47:00,
2013-09-22 05:52:00,50.3,48.3,29.96,NNE,15,0.0,0.0,93,0.00,,,0.00,WUHU216DAVISVP2,2013-09-22 10:52:00,
2013-09-22 05:57:00,50.0,47.7,29.96,NNE,15,0.0,0.0,92,0.00,,,0.00,WUHU216DAVISVP2,2013-09-22 10:57:00,
2013-09-22 06:02:00,49.9,48.0,29.96,NNE,15,0.0,0.0,93,0.00,,,0.00,WUHU216DAVISVP2,2013-09-22 11:02:00,
2013-09-22 06:07:00,49.9,48.0,29.96,NNE,15,0.0,0.0,93,0.00,,,0.00,WUHU216DAVISVP2,2013-09-22 11:07:00,
2013-09-22 06:12:00,49.9,48.2,29.96,NNE,15,0.0,0.0,94,0.00,,,0.00,WUHU216DAVISVP2,2013-09-22 11:12:00,
2013-09-22 06:17:00,49.9,48.0,29.96,NNE,14,0.0,0.0,93,0.00,,,0.00,WUHU216DAVISVP2,2013-09-22 11:17:00,
2013-09-22 06:22:00,49.7,47.7,29.97,NNE,15,0.0,0.0,93,0.00,,,0.00,WUHU216DAVISVP2,2013-09-22 11:22:00,
2013-09-22 06:27:00,49.7,48.0,29.97,NNE,14,0.0,0.0,94,0.00,,,0.00,WUHU216DAVISVP2,2013-09-22 11:27:00,
2013-09-22 06:32:00,49.8,48.1,29.97,NNE,14,0.0,0.0,94,0.00,,,0.00,WUHU216DAVISVP2,2013-09-22 11:32:00,
2013-09-22 06:37:00,49.7,47.7,29.97,NNE,14,0.0,0.0,93,0.00,,,0.00,WUHU216DAVISVP2,2013-09-22 11:37:00,
2013-09-22 06:42:00,49.6,47.9,29.97,NNE,14,0.0,0.0,94,0.00,,,0.00,WUHU216DAVISVP2,2013-09-22 11:42:00,
2013-09-22 06:47:00,49.6,47.9,29.97,NNE,15,0.0,0.0,94,0.00,,,0.00,WUHU216DAVISVP2,2013-09-22 11:47:00,
2013-09-22 06:52:00,49.6,47.9,29.97,NNE,14,0.0,0.0,94,0.00,,,0.00,WUHU216DAVISVP2,2013-09-22 11:52:00,
2013-09-22 06:57:00,49.6,47.9,29.98,NNE,14,0.0,0.0,94,0.00,,,0.00,WUHU216DAVISVP2,2013-09-22 11:57:00,
2013-09-22 07:02:00,49.9,48.2,29.98,NNE,14,0.0,0.0,94,0.00,,,0.00,WUHU216DAVISVP2,2013-09-22 12:02:00,
2013-09-22 07:07:00,50.3,48.6,29.98,NNE,14,0.0,0.0,94,0.00,,,0.00,WUHU216DAVISVP2,2013-09-22 12:07:00,
2013-09-22 07:12:00,50.5,48.5,29.98,NNE,15,0.0,0.0,93,0.00,,,0.00,WUHU216DAVISVP2,2013-09-22 12:12:00,
2013-09-22 07:17:00,50.8,48.8,29.98,NNE,14,0.0,0.0,93,0.00,,,0.00,WUHU216DAVISVP2,2013-09-22 12:17:00,
2013-09-22 07:22:00,51.3,49.0,29.99,NNE,15,0.0,0.0,92,0.00,,,0.00,WUHU216DAVISVP2,2013-09-22 12:22:00,
2013-09-22 07:27:00,51.9,49.6,29.99,NNE,14,0.0,0.0,92,0.00,,,0.00,WUHU216DAVISVP2,2013-09-22 12:27:00,
2013-09-22 07:32:00,52.7,50.1,29.98,NE,48,0.0,0.0,91,0.00,,,0.00,WUHU216DAVISVP2,2013-09-22 12:32:00,
2013-09-22 07:37:00,53.5,50.0,29.99,ENE,76,2.0,2.0,88,0.00,,,0.00,WUHU216DAVISVP2,2013-09-22 12:37:00,
2013-09-22 07:42:00,53.8,50.0,29.99,ENE,68,1.0,2.0,87,0.00,,,0.00,WUHU216DAVISVP2,2013-09-22 12:42:00,
2013-09-22 07:47:00,54.1,50.0,29.99,ENE,65,2.0,3.0,86,0.00,,,0.00,WUHU216DAVISVP2,2013-09-22 12:47:00,
2013-09-22 07:52:00,54.4,50.3,29.99,ENE,68,4.0,4.0,86,0.00,,,0.00,WUHU216DAVISVP2,2013-09-22 12:52:00,
2013-09-22 07:57:00,54.7,50.6,29.99,ENE,73,2.0,4.0,86,0.00,,,0.00,WUHU216DAVISVP2,2013-09-22 12:57:00,
2013-09-22 08:02:00,55.0,50.9,29.99,ENE,67,3.0,4.0,86,0.00,,,0.00,WUHU216DAVISVP2,2013-09-22 13:02:00,
2013-09-22 08:07:00,55.2,50.5,29.99,ENE,63,2.0,5.0,84,0.00,,,0.00,WUHU216DAVISVP2,2013-09-22 13:07:00,
2013-09-22 08:12:00,55.6,51.2,29.99,ENE,63,3.0,5.0,85,0.00,,,0.00,WUHU216DAVISVP2,2013-09-22 13:12:00,
2013-09-22 08:17:00,55.9,51.1,29.99,ENE,65,3.0,7.0,84,0.00,,,0.00,WUHU216DAVISVP2,2013-09-22 13:17:00,
2013-09-22 08:22:00,56.3,51.2,30.00,ENE,68,3.0,7.0,83,0.00,,,0.00,WUHU216DAVISVP2,2013-09-22 13:22:00,
2013-09-22 08:27:00,56.6,51.5,30.00,East,84,3.0,5.0,83,0.00,,,0.00,WUHU216DAVISVP2,2013-09-22 13:27:00,
2013-09-22 08:32:00,57.1,51.7,30.00,East,79,3.0,5.0,82,0.00,,,0.00,WUHU216DAVISVP2,2013-09-22 13:32:00,
2013-09-22 08:37:00,57.4,51.7,30.00,ENE,63,5.0,6.0,81,0.00,,,0.00,WUHU216DAVISVP2,2013-09-22 13:37:00,
2013-09-22 08:42:00,57.8,52.0,30.00,ENE,58,4.0,6.0,81,0.00,,,0.00,WUHU216DAVISVP2,2013-09-22 13:42:00,
2013-09-22 08:47:00,58.1,52.3,30.00,ENE,63,4.0,8.0,81,0.00,,,0.00,WUHU216DAVISVP2,2013-09-22 13:47:00,
2013-09-22 08:52:00,58.4,52.6,30.00,ENE,73,3.0,8.0,81,0.00,,,0.00,WUHU216DAVISVP2,2013-09-22 13:52:00,
2013-09-22 08:57:00,58.9,52.8,30.00,East,84,2.0,5.0,80,0.00,,,0.00,WUHU216DAVISVP2,2013-09-22 13:57:00,
2013-09-22 09:02:00,59.2,52.1,30.00,East,83,1.0,8.0,77,0.00,,,0.00,WUHU216DAVISVP2,2013-09-22 14:02:00,
2013-09-22 09:07:00,59.5,53.0,30.00,East,84,3.0,8.0,79,0.00,,,0.00,WUHU216DAVISVP2,2013-09-22 14:07:00,
2013-09-22 09:12:00,60.0,52.9,30.01,ESE,122,2.0,6.0,77,0.00,,,0.00,WUHU216DAVISVP2,2013-09-22 14:12:00,
2013-09-22 09:17:00,60.3,53.1,30.01,East,82,2.0,5.0,77,0.00,,,0.00,WUHU216DAVISVP2,2013-09-22 14:17:00,
2013-09-22 09:22:00,60.9,53.7,30.01,ENE,72,1.0,5.0,77,0.00,,,0.00,WUHU216DAVISVP2,2013-09-22 14:22:00,
2013-09-22 09:27:00,61.7,54.2,30.01,ENE,76,0.0,5.0,76,0.00,,,0.00,WUHU216DAVISVP2,2013-09-22 14:27:00,
2013-09-22 09:32:00,62.6,55.0,30.01,ENE,78,1.0,5.0,76,0.00,,,0.00,WUHU216DAVISVP2,2013-09-22 14:32:00,
2013-09-22 09:37:00,63.1,54.4,30.01,East,79,2.0,3.0,73,0.00,,,0.00,WUHU216DAVISVP2,2013-09-22 14:37:00,
2013-09-22 09:42:00,62.9,54.2,30.01,East,94,0.0,3.0,73,0.00,,,0.00,WUHU216DAVISVP2,2013-09-22 14:42:00,
2013-09-22 09:47:00,63.4,54.4,30.01,ENE,72,5.0,5.0,72,0.00,,,0.00,WUHU216DAVISVP2,2013-09-22 14:47:00,
2013-09-22 09:52:00,63.5,54.1,30.01,ENE,63,2.0,5.0,71,0.00,,,0.00,WUHU216DAVISVP2,2013-09-22 14:52:00,
2013-09-22 09:57:00,63.7,53.5,30.01,East,82,3.0,5.0,69,0.00,,,0.00,WUHU216DAVISVP2,2013-09-22 14:57:00,
2013-09-22 10:02:00,64.1,53.7,30.01,ESE,122,1.0,5.0,69,0.00,,,0.00,WUHU216DAVISVP2,2013-09-22 15:02:00,
2013-09-22 10:07:00,64.9,54.1,30.01,East,101,0.0,3.0,68,0.00,,,0.00,WUHU216DAVISVP2,2013-09-22 15:07:00,
2013-09-22 10:12:00,65.4,54.3,30.01,East,101,0.0,3.0,67,0.00,,,0.00,WUHU216DAVISVP2,2013-09-22 15:12:00,
2013-09-22 10:17:00,65.9,54.0,30.01,ENE,68,3.0,4.0,65,0.00,,,0.00,WUHU216DAVISVP2,2013-09-22 15:17:00,
2013-09-22 10:22:00,65.7,53.4,30.01,East,85,2.0,6.0,64,0.00,,,0.00,WUHU216DAVISVP2,2013-09-22 15:22:00,
2013-09-22 10:27:00,66.0,52.8,30.01,East,85,6.0,7.0,62,0.00,,,0.00,WUHU216DAVISVP2,2013-09-22 15:27:00,
2013-09-22 10:32:00,65.9,52.2,30.01,ENE,63,4.0,8.0,61,0.00,,,0.00,WUHU216DAVISVP2,2013-09-22 15:32:00,
2013-09-22 10:37:00,66.0,51.9,30.01,ESE,107,4.0,8.0,60,0.00,,,0.00,WUHU216DAVISVP2,2013-09-22 15:37:00,
2013-09-22 10:42:00,66.2,52.5,30.01,East,81,0.0,8.0,61,0.00,,,0.00,WUHU216DAVISVP2,2013-09-22 15:42:00,
2013-09-22 10:47:00,66.7,53.0,30.01,East,99,1.0,7.0,61,0.00,,,0.00,WUHU216DAVISVP2,2013-09-22 15:47:00,
2013-09-22 10:52:00,67.3,52.2,30.01,ENE,70,8.0,8.0,58,0.00,,,0.00,WUHU216DAVISVP2,2013-09-22 15:52:00,
2013-09-22 10:57:00,67.2,51.6,30.01,NE,50,10.0,11.0,57,0.00,,,0.00,WUHU216DAVISVP2,2013-09-22 15:57:00,
2013-09-22 11:02:00,67.1,51.5,30.01,East,94,1.0,11.0,57,0.00,,,0.00,WUHU216DAVISVP2,2013-09-22 16:02:00,
2013-09-22 11:07:00,67.3,52.2,30.01,ENE,73,1.0,8.0,58,0.00,,,0.00,WUHU216DAVISVP2,2013-09-22 16:07:00,
2013-09-22 11:12:00,68.3,53.6,30.01,NE,55,4.0,7.0,59,0.00,,,0.00,WUHU216DAVISVP2,2013-09-22 16:12:00,
2013-09-22 11:17:00,68.8,51.6,30.01,ENE,65,5.0,7.0,54,0.00,,,0.00,WUHU216DAVISVP2,2013-09-22 16:17:00,
2013-09-22 11:22:00,68.8,52.1,30.01,ENE,78,9.0,12.0,55,0.00,,,0.00,WUHU216DAVISVP2,2013-09-22 16:22:00,
2013-09-22 11:27:00,68.5,51.3,30.01,NNE,32,2.0,12.0,54,0.00,,,0.00,WUHU216DAVISVP2,2013-09-22 16:27:00,
2013-09-22 11:32:00,68.5,52.3,30.01,East,92,0.0,9.0,56,0.00,,,0.00,WUHU216DAVISVP2,2013-09-22 16:32:00,
2013-09-22 11:37:00,69.1,52.4,30.01,East,83,7.0,8.0,55,0.00,,,0.00,WUHU216DAVISVP2,2013-09-22 16:37:00,
2013-09-22 11:42:00,69.1,51.9,30.01,NNE,24,2.0,8.0,54,0.00,,,0.00,WUHU216DAVISVP2,2013-09-22 16:42:00,
2013-09-22 11:47:00,69.5,51.7,30.01,NW,309,0.0,7.0,53,0.00,,,0.00,WUHU216DAVISVP2,2013-09-22 16:47:00,
2013-09-22 11:52:00,69.5,51.7,30.01,East,93,5.0,10.0,53,0.00,,,0.00,WUHU216DAVISVP2,2013-09-22 16:52:00,
2013-09-22 11:57:00,69.1,51.3,30.00,SE,142,0.0,10.0,53,0.00,,,0.00,WUHU216DAVISVP2,2013-09-22 16:57:00,
2013-09-22 12:02:00,69.9,51.6,30.00,NE,53,3.0,10.0,52,0.00,,,0.00,WUHU216DAVISVP2,2013-09-22 17:02:00,
2013-09-22 12:07:00,70.1,51.7,30.00,NE,37,0.0,7.0,52,0.00,,,0.00,WUHU216DAVISVP2,2013-09-22 17:07:00,
2013-09-22 12:12:00,70.3,53.0,30.00,ENE,68,2.0,6.0,54,0.00,,,0.00,WUHU216DAVISVP2,2013-09-22 17:12:00,
2013-09-22 12:17:00,70.5,51.6,30.00,ENE,74,5.0,10.0,51,0.00,,,0.00,WUHU216DAVISVP2,2013-09-22 17:17:00,
2013-09-22 12:22:00,70.3,51.9,30.00,East,80,3.0,10.0,52,0.00,,,0.00,WUHU216DAVISVP2,2013-09-22 17:22:00,
2013-09-22 12:27:00,70.6,51.7,30.00,ENE,66,2.0,8.0,51,0.00,,,0.00,WUHU216DAVISVP2,2013-09-22 17:27:00,
2013-09-22 12:32:00,70.7,53.4,30.00,SW,219,2.0,6.0,54,0.00,,,0.00,WUHU216DAVISVP2,2013-09-22 17:32:00,
2013-09-22 12:37:00,71.5,53.6,30.00,NNW,341,1.0,6.0,53,0.00,,,0.00,WUHU216DAVISVP2,2013-09-22 17:37:00,
2013-09-22 12:42:00,72.3,51.5,29.99,ENE,65,2.0,8.0,48,0.00,,,0.00,WUHU216DAVISVP2,2013-09-22 17:42:00,
2013-09-22 12:47:00,71.9,51.1,29.99,NW,309,4.0,8.0,48,0.00,,,0.00,WUHU216DAVISVP2,2013-09-22 17:47:00,
2013-09-22 12:52:00,71.7,50.4,29.99,NW,318,3.0,9.0,47,0.00,,,0.00,WUHU216DAVISVP2,2013-09-22 17:52:00,
2013-09-22 12:57:00,72.2,52.0,29.99,NE,38,4.0,9.0,49,0.00,,,0.00,WUHU216DAVISVP2,2013-09-22 17:57:00,
2013-09-22 13:02:00,72.3,51.0,29.98,NW,318,2.0,8.0,47,0.00,,,0.00,WUHU216DAVISVP2,2013-09-22 18:02:00,
2013-09-22 13:07:00,72.8,50.2,29.98,ENE,58,2.0,9.0,45,0.00,,,0.00,WUHU216DAVISVP2,2013-09-22 18:07:00,
2013-09-22 13:12:00,72.6,50.0,29.97,West,281,0.0,9.0,45,0.00,,,0.00,WUHU216DAVISVP2,2013-09-22 18:12:00,
2013-09-22 13:17:00,72.9,50.9,29.97,ENE,61,3.0,6.0,46,0.00,,,0.00,WUHU216DAVISVP2,2013-09-22 18:17:00,
2013-09-22 13:22:00,73.2,51.2,29.97,NNW,331,2.0,5.0,46,0.00,,,0.00,WUHU216DAVISVP2,2013-09-22 18:22:00,
2013-09-22 13:27:00,73.7,51.0,29.97,WNW,301,2.0,7.0,45,0.00,,,0.00,WUHU216DAVISVP2,2013-09-22 18:27:00,
2013-09-22 13:32:00,73.7,51.0,29.97,East,94,3.0,7.0,45,0.00,,,0.00,WUHU216DAVISVP2,2013-09-22 18:32:00,
2013-09-22 13:37:00,73.1,51.1,29.97,ENE,64,8.0,9.0,46,0.00,,,0.00,WUHU216DAVISVP2,2013-09-22 18:37:00,
2013-09-22 13:42:00,72.7,49.5,29.96,NE,35,6.0,9.0,44,0.00,,,0.00,WUHU216DAVISVP2,2013-09-22 18:42:00,
2013-09-22 13:47:00,73.1,50.5,29.96,NW,319,2.0,9.0,45,0.00,,,0.00,WUHU216DAVISVP2,2013-09-22 18:47:00,
2013-09-22 13:52:00,73.4,50.1,29.96,NNW,338,2.0,7.0,44,0.00,,,0.00,WUHU216DAVISVP2,2013-09-22 18:52:00,
2013-09-22 13:57:00,73.5,48.9,29.96,ENE,61,5.0,7.0,42,0.00,,,0.00,WUHU216DAVISVP2,2013-09-22 18:57:00,
2013-09-22 14:02:00,73.3,48.1,29.96,ENE,78,4.0,9.0,41,0.00,,,0.00,WUHU216DAVISVP2,2013-09-22 19:02:00,
2013-09-22 14:07:00,73.3,48.7,29.96,East,79,3.0,9.0,42,0.00,,,0.00,WUHU216DAVISVP2,2013-09-22 19:07:00,
2013-09-22 14:12:00,73.4,49.5,29.95,ENE,70,1.0,8.0,43,0.00,,,0.00,WUHU216DAVISVP2,2013-09-22 19:12:00,
2013-09-22 14:17:00,73.9,49.3,29.95,East,86,1.0,8.0,42,0.00,,,0.00,WUHU216DAVISVP2,2013-09-22 19:17:00,
2013-09-22 14:22:00,73.6,49.0,29.95,ENE,62,6.0,8.0,42,0.00,,,0.00,WUHU216DAVISVP2,2013-09-22 19:22:00,
2013-09-22 14:27:00,73.5,49.6,29.95,NW,320,2.0,8.0,43,0.00,,,0.00,WUHU216DAVISVP2,2013-09-22 19:27:00,
2013-09-22 14:32:00,74.0,48.1,29.95,NNE,27,0.0,7.0,40,0.00,,,0.00,WUHU216DAVISVP2,2013-09-22 19:32:00,
2013-09-22 14:37:00,74.0,48.1,29.95,East,80,1.0,8.0,40,0.00,,,0.00,WUHU216DAVISVP2,2013-09-22 19:37:00,
2013-09-22 14:42:00,74.4,49.2,29.95,NW,307,0.0,8.0,41,0.00,,,0.00,WUHU216DAVISVP2,2013-09-22 19:42:00,
2013-09-22 14:47:00,74.4,50.4,29.94,ENE,73,1.0,6.0,43,0.00,,,0.00,WUHU216DAVISVP2,2013-09-22 19:47:00,
2013-09-22 14:52:00,74.2,49.6,29.94,ENE,76,3.0,6.0,42,0.00,,,0.00,WUHU216DAVISVP2,2013-09-22 19:52:00,
2013-09-22 14:57:00,74.1,50.2,29.94,East,101,0.0,6.0,43,0.00,,,0.00,WUHU216DAVISVP2,2013-09-22 19:57:00,
2013-09-22 15:02:00,74.6,49.3,29.94,ENE,76,0.0,5.0,41,0.00,,,0.00,WUHU216DAVISVP2,2013-09-22 20:02:00,
2013-09-22 15:07:00,74.8,48.1,29.94,WNW,283,1.0,7.0,39,0.00,,,0.00,WUHU216DAVISVP2,2013-09-22 20:07:00,
2013-09-22 15:12:00,74.4,49.2,29.94,ENE,63,4.0,7.0,41,0.00,,,0.00,WUHU216DAVISVP2,2013-09-22 20:12:00,
2013-09-22 15:17:00,74.9,50.3,29.94,ESE,120,2.0,7.0,42,0.00,,,0.00,WUHU216DAVISVP2,2013-09-22 20:17:00,
2013-09-22 15:22:00,74.9,49.5,29.94,ENE,63,3.0,7.0,41,0.00,,,0.00,WUHU216DAVISVP2,2013-09-22 20:22:00,
2013-09-22 15:27:00,74.8,50.2,29.94,East,98,1.0,8.0,42,0.00,,,0.00,WUHU216DAVISVP2,2013-09-22 20:27:00,
2013-09-22 15:32:00,74.8,48.9,29.94,East,80,2.0,8.0,40,0.00,,,0.00,WUHU216DAVISVP2,2013-09-22 20:32:00,
2013-09-22 15:37:00,74.6,48.7,29.94,East,89,6.0,6.0,40,0.00,,,0.00,WUHU216DAVISVP2,2013-09-22 20:37:00,
2013-09-22 15:42:00,74.6,49.3,29.94,East,101,1.0,7.0,41,0.00,,,0.00,WUHU216DAVISVP2,2013-09-22 20:42:00,
2013-09-22 15:47:00,75.0,48.4,29.93,ENE,72,3.0,7.0,39,0.00,,,0.00,WUHU216DAVISVP2,2013-09-22 20:47:00,
2013-09-22 15:52:00,74.5,47.9,29.93,ENE,72,5.0,11.0,39,0.00,,,0.00,WUHU216DAVISVP2,2013-09-22 20:52:00,
2013-09-22 15:57:00,74.2,47.5,29.93,NNE,19,1.0,11.0,39,0.00,,,0.00,WUHU216DAVISVP2,2013-09-22 20:57:00,
2013-09-22 16:02:00,74.6,50.0,29.93,North,4,2.0,9.0,42,0.00,,,0.00,WUHU216DAVISVP2,2013-09-22 21:02:00,
2013-09-22 16:07:00,75.0,48.4,29.93,NW,311,1.0,7.0,39,0.00,,,0.00,WUHU216DAVISVP2,2013-09-22 21:07:00,
2013-09-22 16:12:00,74.9,48.9,29.93,WNW,293,2.0,7.0,40,0.00,,,0.00,WUHU216DAVISVP2,2013-09-22 21:12:00,
2013-09-22 16:17:00,74.8,48.9,29.93,ENE,76,4.0,7.0,40,0.00,,,0.00,WUHU216DAVISVP2,2013-09-22 21:17:00,
2013-09-22 16:22:00,74.4,49.2,29.93,East,91,2.0,9.0,41,0.00,,,0.00,WUHU216DAVISVP2,2013-09-22 21:22:00,
2013-09-22 16:27:00,74.7,49.4,29.93,ENE,59,0.0,9.0,41,0.00,,,0.00,WUHU216DAVISVP2,2013-09-22 21:27:00,
2013-09-22 16:32:00,75.0,48.4,29.93,East,86,2.0,5.0,39,0.00,,,0.00,WUHU216DAVISVP2,2013-09-22 21:32:00,
2013-09-22 16:37:00,75.2,49.9,29.93,North,352,3.0,6.0,41,0.00,,,0.00,WUHU216DAVISVP2,2013-09-22 21:37:00,
2013-09-22 16:42:00,75.3,49.9,29.93,East,86,1.0,6.0,41,0.00,,,0.00,WUHU216DAVISVP2,2013-09-22 21:42:00,
2013-09-22 16:47:00,74.8,49.4,29.93,NW,312,2.0,5.0,41,0.00,,,0.00,WUHU216DAVISVP2,2013-09-22 21:47:00,
2013-09-22 16:52:00,74.9,48.9,29.93,East,80,2.0,5.0,40,0.00,,,0.00,WUHU216DAVISVP2,2013-09-22 21:52:00,
2013-09-22 16:57:00,75.1,49.8,29.93,ENE,74,4.0,5.0,41,0.00,,,0.00,WUHU216DAVISVP2,2013-09-22 21:57:00,
2013-09-22 17:02:00,75.1,50.4,29.93,NNE,25,0.0,6.0,42,0.00,,,0.00,WUHU216DAVISVP2,2013-09-22 22:02:00,
2013-09-22 17:07:00,75.0,51.0,29.93,ENE,65,3.0,6.0,43,0.00,,,0.00,WUHU216DAVISVP2,2013-09-22 22:07:00,
2013-09-22 17:12:00,74.5,50.5,29.93,NNW,328,1.0,8.0,43,0.00,,,0.00,WUHU216DAVISVP2,2013-09-22 22:12:00,
2013-09-22 17:17:00,74.5,50.5,29.93,ENE,77,2.0,8.0,43,0.00,,,0.00,WUHU216DAVISVP2,2013-09-22 22:17:00,
2013-09-22 17:22:00,74.7,50.7,29.93,ENE,70,2.0,4.0,43,0.00,,,0.00,WUHU216DAVISVP2,2013-09-22 22:22:00,
2013-09-22 17:27:00,74.3,49.7,29.93,ENE,72,6.0,7.0,42,0.00,,,0.00,WUHU216DAVISVP2,2013-09-22 22:27:00,
2013-09-22 17:32:00,73.9,49.9,29.93,ENE,77,3.0,7.0,43,0.00,,,0.00,WUHU216DAVISVP2,2013-09-22 22:32:00,
2013-09-22 17:37:00,73.9,50.6,29.93,ENE,68,4.0,6.0,44,0.00,,,0.00,WUHU216DAVISVP2,2013-09-22 22:37:00,
2013-09-22 17:42:00,73.9,50.6,29.93,ENE,77,2.0,5.0,44,0.00,,,0.00,WUHU216DAVISVP2,2013-09-22 22:42:00,
2013-09-22 17:47:00,73.7,50.4,29.93,ENE,69,2.0,4.0,44,0.00,,,0.00,WUHU216DAVISVP2,2013-09-22 22:47:00,
2013-09-22 17:52:00,73.6,51.5,29.93,ENE,70,0.0,4.0,46,0.00,,,0.00,WUHU216DAVISVP2,2013-09-22 22:52:00,
2013-09-22 17:57:00,73.6,50.9,29.93,ENE,70,1.0,5.0,45,0.00,,,0.00,WUHU216DAVISVP2,2013-09-22 22:57:00,
2013-09-22 18:02:00,73.3,51.3,29.93,ENE,58,3.0,5.0,46,0.00,,,0.00,WUHU216DAVISVP2,2013-09-22 23:02:00,
2013-09-22 18:07:00,72.8,51.4,29.93,ENE,66,2.0,4.0,47,0.00,,,0.00,WUHU216DAVISVP2,2013-09-22 23:07:00,
2013-09-22 18:12:00,72.2,51.5,29.93,ENE,72,1.0,4.0,48,0.00,,,0.00,WUHU216DAVISVP2,2013-09-22 23:12:00,
2013-09-22 18:17:00,71.8,51.1,29.93,ENE,73,2.0,3.0,48,0.00,,,0.00,WUHU216DAVISVP2,2013-09-22 23:17:00,
2013-09-22 18:22:00,71.4,51.9,29.93,ENE,67,2.0,3.0,50,0.00,,,0.00,WUHU216DAVISVP2,2013-09-22 23:22:00,
2013-09-22 18:27:00,70.9,51.9,29.93,ENE,62,2.0,3.0,51,0.00,,,0.00,WUHU216DAVISVP2,2013-09-22 23:27:00,
2013-09-22 18:32:00,70.6,52.2,29.93,ENE,63,1.0,2.0,52,0.00,,,0.00,WUHU216DAVISVP2,2013-09-22 23:32:00,
2013-09-22 18:37:00,70.3,52.5,29.93,ENE,68,0.0,2.0,53,0.00,,,0.00,WUHU216DAVISVP2,2013-09-22 23:37:00,
2013-09-22 18:42:00,69.8,52.5,29.93,ENE,68,0.0,1.0,54,0.00,,,0.00,WUHU216DAVISVP2,2013-09-22 23:42:00,
2013-09-22 18:47:00,69.4,52.7,29.93,ENE,68,0.0,0.0,55,0.00,,,0.00,WUHU216DAVISVP2,2013-09-22 23:47:00,
2013-09-22 18:52:00,68.8,52.6,29.93,ENE,68,0.0,0.0,56,0.00,,,0.00,WUHU216DAVISVP2,2013-09-22 23:52:00,
2013-09-22 18:57:00,68.1,52.9,29.93,ENE,68,0.0,0.0,58,0.00,,,0.00,WUHU216DAVISVP2,2013-09-22 23:57:00,
2013-09-22 19:02:00,67.3,52.6,29.93,ENE,68,0.0,0.0,59,0.00,,,0.00,WUHU216DAVISVP2,2013-09-23 00:02:00,
2013-09-22 19:07:00,66.5,53.2,29.94,ENE,68,0.0,0.0,62,0.00,,,0.00,WUHU216DAVISVP2,2013-09-23 00:07:00,
2013-09-22 19:12:00,65.9,53.4,29.94,ENE,68,0.0,0.0,64,0.00,,,0.00,WUHU216DAVISVP2,2013-09-23 00:12:00,
2013-09-22 19:17:00,65.3,52.8,29.94,ENE,68,0.0,0.0,64,0.00,,,0.00,WUHU216DAVISVP2,2013-09-23 00:17:00,
2013-09-22 19:22:00,64.6,53.0,29.94,ENE,68,0.0,0.0,66,0.00,,,0.00,WUHU216DAVISVP2,2013-09-23 00:22:00,
2013-09-22 19:27:00,64.0,52.8,29.94,ENE,68,0.0,0.0,67,0.00,,,0.00,WUHU216DAVISVP2,2013-09-23 00:27:00,
2013-09-22 19:32:00,63.5,52.7,29.94,ENE,68,0.0,0.0,68,0.00,,,0.00,WUHU216DAVISVP2,2013-09-23 00:32:00,
2013-09-22 19:37:00,63.1,53.5,29.94,ENE,68,0.0,0.0,71,0.00,,,0.00,WUHU216DAVISVP2,2013-09-23 00:37:00,
2013-09-22 19:42:00,62.5,53.3,29.94,ENE,68,0.0,0.0,72,0.00,,,0.00,WUHU216DAVISVP2,2013-09-23 00:42:00,
2013-09-22 19:47:00,62.1,53.3,29.94,ENE,68,0.0,0.0,73,0.00,,,0.00,WUHU216DAVISVP2,2013-09-23 00:47:00,
2013-09-22 19:52:00,61.8,53.4,29.94,ENE,68,0.0,0.0,74,0.00,,,0.00,WUHU216DAVISVP2,2013-09-23 00:52:00,
2013-09-22 19:57:00,61.7,53.3,29.94,ENE,68,0.0,0.0,74,0.00,,,0.00,WUHU216DAVISVP2,2013-09-23 00:57:00,
2013-09-22 20:02:00,61.6,52.9,29.94,ENE,68,0.0,0.0,73,0.00,,,0.00,WUHU216DAVISVP2,2013-09-23 01:02:00,
2013-09-22 20:07:00,62.3,52.4,29.94,ENE,68,0.0,0.0,70,0.00,,,0.00,WUHU216DAVISVP2,2013-09-23 01:07:00,
2013-09-22 20:12:00,62.1,53.0,29.95,ENE,68,0.0,0.0,72,0.00,,,0.00,WUHU216DAVISVP2,2013-09-23 01:12:00,
2013-09-22 20:17:00,61.6,52.9,29.95,ENE,68,0.0,0.0,73,0.00,,,0.00,WUHU216DAVISVP2,2013-09-23 01:17:00,
2013-09-22 20:22:00,61.3,52.6,29.95,ENE,68,0.0,0.0,73,0.00,,,0.00,WUHU216DAVISVP2,2013-09-23 01:22:00,
2013-09-22 20:27:00,61.1,53.1,29.95,ENE,68,0.0,0.0,75,0.00,,,0.00,WUHU216DAVISVP2,2013-09-23 01:27:00,
2013-09-22 20:32:00,60.3,52.7,29.95,ENE,68,0.0,0.0,76,0.00,,,0.00,WUHU216DAVISVP2,2013-09-23 01:32:00,
2013-09-22 20:37:00,60.1,52.5,29.95,ENE,68,0.0,0.0,76,0.00,,,0.00,WUHU216DAVISVP2,2013-09-23 01:37:00,
2013-09-22 20:42:00,60.2,52.2,29.95,ENE,68,0.0,0.0,75,0.00,,,0.00,WUHU216DAVISVP2,2013-09-23 01:42:00,
2013-09-22 20:47:00,60.7,51.6,29.95,ENE,68,1.0,1.0,72,0.00,,,0.00,WUHU216DAVISVP2,2013-09-23 01:47:00,
2013-09-22 20:52:00,61.3,51.8,29.96,East,79,0.0,2.0,71,0.00,,,0.00,WUHU216DAVISVP2,2013-09-23 01:52:00,
2013-09-22 20:57:00,61.6,51.3,29.95,ENE,68,1.0,2.0,69,0.00,,,0.00,WUHU216DAVISVP2,2013-09-23 01:57:00,
2013-09-22 21:02:00,61.7,51.8,29.95,ENE,67,1.0,2.0,70,0.00,,,0.00,WUHU216DAVISVP2,2013-09-23 02:02:00,
2013-09-22 21:07:00,61.4,51.7,29.95,ENE,62,1.0,2.0,70,0.00,,,0.00,WUHU216DAVISVP2,2013-09-23 02:07:00,
2013-09-22 21:12:00,61.5,51.8,29.95,ENE,74,1.0,2.0,70,0.00,,,0.00,WUHU216DAVISVP2,2013-09-23 02:12:00,
2013-09-22 21:17:00,61.6,51.5,29.96,ENE,62,2.0,2.0,69,0.00,,,0.00,WUHU216DAVISVP2,2013-09-23 02:17:00,
2013-09-22 21:22:00,61.7,52.0,29.96,NE,52,2.0,2.0,70,0.00,,,0.00,WUHU216DAVISVP2,2013-09-23 02:22:00,
2013-09-22 21:27:00,61.1,51.8,29.96,ENE,74,1.0,2.0,71,0.00,,,0.00,WUHU216DAVISVP2,2013-09-23 02:27:00,
2013-09-22 21:32:00,61.1,51.4,29.96,ENE,67,2.0,2.0,70,0.00,,,0.00,WUHU216DAVISVP2,2013-09-23 02:32:00,
2013-09-22 21:37:00,61.2,51.5,29.96,ENE,62,2.0,2.0,70,0.00,,,0.00,WUHU216DAVISVP2,2013-09-23 02:37:00,
2013-09-22 21:42:00,61.1,51.4,29.96,ENE,64,2.0,3.0,70,0.00,,,0.00,WUHU216DAVISVP2,2013-09-23 02:42:00,
2013-09-22 21:47:00,60.9,51.2,29.97,ENE,71,2.0,3.0,70,0.00,,,0.00,WUHU216DAVISVP2,2013-09-23 02:47:00,
2013-09-22 21:52:00,60.7,51.4,29.97,ENE,68,1.0,2.0,71,0.00,,,0.00,WUHU216DAVISVP2,2013-09-23 02:52:00,
2013-09-22 21:57:00,60.7,51.4,29.97,ENE,60,3.0,3.0,71,0.00,,,0.00,WUHU216DAVISVP2,2013-09-23 02:57:00,
2013-09-22 22:02:00,60.7,51.4,29.97,ENE,57,2.0,3.0,71,0.00,,,0.00,WUHU216DAVISVP2,2013-09-23 03:02:00,
2013-09-22 22:07:00,60.5,51.6,29.97,ENE,70,1.0,3.0,72,0.00,,,0.00,WUHU216DAVISVP2,2013-09-23 03:07:00,
2013-09-22 22:12:00,60.4,51.5,29.97,ENE,60,1.0,3.0,72,0.00,,,0.00,WUHU216DAVISVP2,2013-09-23 03:12:00,
2013-09-22 22:17:00,60.3,51.4,29.97,ENE,62,2.0,3.0,72,0.00,,,0.00,WUHU216DAVISVP2,2013-09-23 03:17:00,
2013-09-22 22:22:00,60.3,51.4,29.97,ENE,58,2.0,3.0,72,0.00,,,0.00,WUHU216DAVISVP2,2013-09-23 03:22:00,
2013-09-22 22:27:00,60.2,51.3,29.97,NE,49,2.0,3.0,72,0.00,,,0.00,WUHU216DAVISVP2,2013-09-23 03:27:00,
2013-09-22 22:32:00,59.7,51.5,29.97,ENE,61,1.0,3.0,74,0.00,,,0.00,WUHU216DAVISVP2,2013-09-23 03:32:00,
2013-09-22 22:37:00,59.2,51.4,29.97,NE,56,3.0,3.0,75,0.00,,,0.00,WUHU216DAVISVP2,2013-09-23 03:37:00,
2013-09-22 22:42:00,59.3,51.5,29.97,ENE,66,2.0,3.0,75,0.00,,,0.00,WUHU216DAVISVP2,2013-09-23 03:42:00,
2013-09-22 22:47:00,59.1,51.3,29.97,ENE,74,2.0,3.0,75,0.00,,,0.00,WUHU216DAVISVP2,2013-09-23 03:47:00,
2013-09-22 22:52:00,59.0,51.5,29.97,ENE,65,2.0,3.0,76,0.00,,,0.00,WUHU216DAVISVP2,2013-09-23 03:52:00,
2013-09-22 22:57:00,59.1,51.6,29.97,ENE,60,3.0,3.0,76,0.00,,,0.00,WUHU216DAVISVP2,2013-09-23 03:57:00,
2013-09-22 23:01:00,59.1,51.2,29.97,ENE,60,3.0,4.0,75,0.00,,,0.00,WUHU216DAVISVP2,2013-09-23 04:01:00,
2013-09-22 23:06:00,59.1,51.2,29.97,ENE,60,2.0,4.0,75,0.00,,,0.00,WUHU216DAVISVP2,2013-09-23 04:06:00,
2013-09-22 23:11:00,59.0,51.4,29.97,NE,56,2.0,4.0,76,0.00,,,0.00,WUHU216DAVISVP2,2013-09-23 04:11:00,
2013-09-22 23:16:00,59.0,51.4,29.98,ENE,57,1.0,3.0,76,0.00,,,0.00,WUHU216DAVISVP2,2013-09-23 04:16:00,
2013-09-22 23:21:00,58.8,51.3,29.98,ENE,57,1.0,2.0,76,0.00,,,0.00,WUHU216DAVISVP2,2013-09-23 04:21:00,
2013-09-22 23:26:00,58.3,51.2,29.97,ENE,68,2.0,2.0,77,0.00,,,0.00,WUHU216DAVISVP2,2013-09-23 04:26:00,
2013-09-22 23:31:00,58.3,51.2,29.97,ENE,64,2.0,3.0,77,0.00,,,0.00,WUHU216DAVISVP2,2013-09-23 04:31:00,
2013-09-22 23:36:00,58.2,51.1,29.97,ENE,64,3.0,3.0,77,0.00,,,0.00,WUHU216DAVISVP2,2013-09-23 04:36:00,
2013-09-22 23:41:00,58.2,51.1,29.97,ENE,60,3.0,4.0,77,0.00,,,0.00,WUHU216DAVISVP2,2013-09-23 04:41:00,
2013-09-22 23:46:00,58.2,51.1,29.97,ENE,60,2.0,4.0,77,0.00,,,0.00,WUHU216DAVISVP2,2013-09-23 04:46:00,
2013-09-22 23:51:00,58.0,51.2,29.97,ENE,59,2.0,3.0,78,0.00,,,0.00,WUHU216DAVISVP2,2013-09-23 04:51:00,
2013-09-22 23:56:00,57.8,51.1,29.97,ENE,61,2.0,3.0,78,0.00,,,0.00,WUHU216DAVISVP2,2013-09-23 04:56:00,